Date,TemperatureHighF,TemperatureAvgF,TemperatureLowF,DewpointHighF,DewpointAvgF,DewpointLowF,HumidityHigh,HumidityAvg,HumidityLow,PressureMaxIn,PressureMinIn,WindSpeedMaxMPH,WindSpeedAvgMPH,GustSpeedMaxMPH,PrecipitationSumIn
2013-4-3,52,51,50,43,41,39,74,70,61,29.96,29.91,4,2,6,0.00
2013-4-4,60,52,48,59,48,39,99,86,66,29.98,29.46,26,7,26,0.94
2013-4-5,60,50,43,59,47,42,99,90,69,29.72,29.47,18,5,18,0.01
2013-4-6,66,52,37,50,42,35,99,72,35,29.98,29.71,19,6,19,0.00
2013-4-7,73,56,37,59,48,34,96,76,56,29.97,29.85,14,4,14,0.00
2013-4-8,81,66,50,65,57,49,96,75,50,29.90,29.81,21,5,21,0.00
2013-4-9,66,66,62,62,61,58,87,87,86,29.86,29.84,9,5,9,0.00
2013-4-10,87,73,63,67,62,57,96,71,44,29.86,29.73,20,7,20,0.00
2013-4-11,67,65,63,62,61,60,91,89,85,29.74,29.70,8,4,11,0.00
2013-4-12,81,72,68,74,70,65,98,90,75,29.58,29.40,24,9,24,1.50
2013-4-13,71,64,51,67,55,46,95,75,46,29.73,29.44,17,5,17,0.01
2013-4-14,78,63,46,64,53,45,99,72,43,29.81,29.72,13,3,13,0.00
2013-4-15,72,66,60,63,60,56,93,82,70,29.88,29.64,23,6,23,0.57
2013-4-16,78,63,58,66,59,57,98,88,64,29.96,29.86,11,3,11,0.00
2013-4-19,73,69,68,70,67,66,94,91,86,29.92,29.89,11,6,11,0.58
2013-4-20,68,59,47,67,52,42,98,78,54,30.25,29.88,17,5,17,0.39
2013-4-21,66,53,42,50,44,41,96,75,49,30.41,30.25,30,7,30,0.00
2013-4-22,63,57,45,52,49,38,89,76,63,30.40,30.16,16,10,17,0.00
2013-4-23,54,54,54,50,50,50,86,86,86,30.17,30.17,12,12,12,0.00
2013-4-24,80,72,66,64,61,58,84,70,51,29.92,29.85,20,10,20,0.00
2013-4-25,78,66,54,64,59,51,89,81,59,30.05,29.86,21,6,21,0.02
2013-4-26,72,55,45,53,48,44,97,80,42,30.19,30.04,14,3,14,0.00